Home   Weather   Copenhagen   Past weeks
Flag for South Africa

Past Weather in Copenhagen, South Africa — Yesterday and Last 2 Weeks

Now
73 °F

Passing clouds.


Feels Like: 74 °F
Forecast: 77 / 40 °F
Wind: 13 mph from Southwest

Location: Bloemfontein Airport
Current Time: Sep 21, 2020 at 4:19:24 pm
Latest Report: Sep 21, 2020 at 3:00 pm
Visibility: N/A
Pressure30.15 "Hg
Humidity: 14%
Dew Point: 21 °F
Location of CopenhagenLocation

Past Weather in Copenhagen — Graph

°F

Copenhagen Temperature Yesterday

Maximum temperature yesterday: 86 °F (at 2:48 pm)
Minimum temperature yesterday: 39 °F (at 5:00 am)
Average temperature yesterday: 63 °F

High & Low Weather Summary for the Past Weeks

 TemperatureHumidityPressure
High86 °F (Sep 10, 2:00 pm)100% (Sep 7, 6:00 am)30.39 "Hg (Sep 7, 6:00 am)
Low27 °F (Sep 15, 6:00 am)3% (Sep 15, 12:10 pm)29.95 "Hg (Sep 20, 4:00 pm)
Average60 °F36%30.17 "Hg
* Reported Sep 6 2:00 pm — Sep 21 2:00 pm, Copenhagen. Weather by CustomWeather, © 2020

Note: Actual official high and low records may vary slightly from our data, if they occured in-between our weather recording intervals... More about our weather records

Copenhagen Weather History for the Previous 24 Hours

Scroll right to see more
 ConditionsComfort  
Time TempWeatherWind HumidityBarometerVisibility
2:00 pm
Mon, Sep 21
73 °FPassing clouds.12 mph15%30.18 "HgN/A
1:00 pm72 °FPassing clouds.10 mph11%30.18 "HgN/A
12:00 pm70 °FSunny.13 mph15%30.18 "Hg10 mi
11:00 am68 °FSunny.10 mph18%30.18 "Hg10 mi
10:05 am66 °FPassing clouds.12 mph22%30.18 "HgN/A
9:00 am63 °FSunny.13 mph24%30.15 "Hg10 mi
8:11 am61 °FSunny.14 mph25%30.15 "Hg10 mi
8:00 am59 °FSunny.8 mph25%30.15 "Hg10 mi
7:12 am52 °FSunny.7 mph30%30.12 "Hg10 mi
7:00 am48 °FSunny.3 mph37%30.12 "Hg10 mi
6:00 am45 °FClear.3 mph49%30.09 "Hg10 mi
5:00 am45 °FClear.1 mph46%30.09 "Hg10 mi
4:00 am45 °FQuite cool.No wind46%30.07 "HgN/A
3:00 am43 °FQuite cool.3 mph46%30.07 "HgN/A
2:00 am46 °FCool.5 mph37%30.07 "HgN/A
1:00 am46 °FCool.5 mph37%30.04 "HgN/A
12:00 am50 °FCool.2 mph32%30.04 "HgN/A
11:00 pm
Sun, Sep 20
57 °FRefreshingly cool.2 mph23%30.04 "HgN/A
10:00 pm61 °FRefreshingly cool.7 mph20%30.04 "HgN/A
9:00 pm64 °FMild.8 mph18%30.04 "HgN/A
8:00 pm70 °FClear.7 mph12%30.01 "Hg10 mi
7:00 pm73 °FClear.10 mph12%29.98 "Hg10 mi
6:00 pm77 °FSunny.13 mph11%29.98 "Hg10 mi
5:00 pm82 °FSunny.10 mph6%29.95 "Hg10 mi
4:00 pm84 °FPassing clouds.14 mph8%29.95 "HgN/A
Weather by CustomWeather, © 2020

See weather overview